STARLINK-35100

Last updated on Tue Oct 07 2025 00:02:06 GMT+0000 (Coordinated Universal Time)

1 65542U 25200Y 25279.50003471 .00136956 00000+0 24834-2 0 9998 2 65542 97.6040 346.2199 0001497 106.2176 16.3644 15.49105645 5816

Satellite not in orbit

STARLINK-35100